[[{"header":{"parameterUnit":"m.s-1","parameterCategory":1,"la1":30.2991,"la2":30.254,"lo1":-89.0895,"lo2":-89.0444,"dy":0.0017,"dx":0.0017,"nx":28,"ny":28,"refTime":"2025-03-09T21:00:00:Z","depth":0,"parameterNumber":2,"parameterNumberName":"U-component_of_WINDS"},"data":[0,0,0,0,0,0,0,0,0,0,0,0,0,0,0,0,0,0,0,0,0,0,0,0,0,0,0,0,0,0,0,0,0,0,0,0,0,0,0,0,0,0,0,0,0,0,0,0,0,0,0,0,0,0,0,0,0,0,0.441,0.441,0,0.4423,0.4423,0.4423,0.4432,0.4432,0.4432,0.4432,0.4445,0.4445,0.4445,0,0,0,0,0,0,0,0,0,0,0,0,0,0.4393,0.4393,0.441,0.441,0.441,0.4423,0.4423,0.4423,0.4432,0.4432,0.4432,0.4432,0.4445,0.4445,0.4445,0,0,0,0,0,0,0,0,0,0,0,0,0,0.4402,0.4393,0.441,0.4416,0.4417,0.4422,0.4423,0.4423,0.4431,0.4432,0.4432,0.4432,0.4445,0.4445,0.4446,0.4446,0,0,0.4447,0.4447,0,0,0,0,0,0,0,0,0.4402,0.4403,0.4415,0.4415,0.4416,0.4426,0.4421,0.4431,0.4431,0.4426,0.4432,0.4432,0.4438,0.4439,0.4442,0.4447,0.4448,0.4447,0.4447,0.4447,0.4447,0,0,0,0,0,0,0,0.4401,0.4402,0.4415,0.4415,0.4416,0.4418,0.4419,0.4423,0.4431,0.4426,0.4427,0.4428,0.4439,0.4441,0.4442,0.4448,0.4447,0.4447,0.4448,0.4448,0.4454,0.4454,0,0,0,0,0,0,0.4399,0.4402,0.4414,0.4415,0.4409,0.4418,0.442,0.4422,0.4431,0.4433,0.4428,0.4429,0.444,0.4441,0.4442,0.4444,0.4447,0.4448,0.4448,0.4454,0.4454,0.4454,0,0,0,0,0,0,0.4399,0.44,0.4414,0.4409,0.441,0.4418,0.4421,0.4423,0.4425,0.4433,0.4434,0.4429,0.444,0.4442,0.4445,0.4444,0.4448,0.4448,0.4454,0.4454,0.4454,0.4447,0,0,0,0,0,0,0.4398,0.44,0.4401,0.4409,0.4411,0.4416,0.4421,0.4423,0.4426,0.4426,0.4434,0.4435,0.4441,0.4445,0.4446,0.4445,0.4449,0.4455,0.4454,0.4454,0.4447,0.4446,0.4446,0,0,0,0,0,0.4398,0.4398,0.4401,0.4402,0.4411,0.4416,0.4418,0.4424,0.4426,0.4426,0.4431,0.4435,0.4444,0.4445,0.4446,0.4446,0.4455,0.4454,0.4454,0.4447,0.4446,0.4446,0,0,0,0,0,0,0.439,0.4399,0.4402,0.4405,0.441,0.4418,0.4419,0.4422,0.4427,0.4427,0.4434,0.4436,0.4439,0.4443,0.4443,0.4447,0.445,0.445,0.4444,0.4443,0.4443,0.4442,0.4449,0,0,0,0,0,0.4388,0.4392,0.44,0.4401,0.4404,0.4411,0.4413,0.4417,0.4423,0.4425,0.443,0.4435,0.4439,0.4441,0.4446,0.4448,0.4449,0.4448,0.4447,0.4447,0.4446,0.4448,0.4447,0.4453,0.4453,0.4453,0,0,0.4385,0.4391,0.4393,0.44,0.4404,0.4407,0.4412,0.4416,0.4418,0.4425,0.4429,0.4433,0.4439,0.4441,0.4443,0.4445,0.4445,0.4446,0.4446,0.4446,0.4447,0.4447,0.4446,0.4453,0.4453,0.4453,0,0,0.4382,0.4386,0.4388,0.4392,0.4399,0.4403,0.4404,0.4411,0.4414,0.4418,0.4423,0.4426,0.4433,0.4437,0.444,0.4437,0.4441,0.4438,0.4435,0.4436,0.4435,0.4435,0.4434,0.4433,0.4438,0.4438,0.4438,0,0.4377,0.4382,0.4389,0.4391,0.4394,0.4401,0.4403,0.4406,0.4414,0.4416,0.4418,0.4426,0.4431,0.4434,0.4433,0.4436,0.4436,0.4437,0.4435,0.4434,0.4434,0.4433,0.4433,0.4438,0.4438,0.4438,0.4438,0,0.4376,0.438,0.438,0.4387,0.439,0.4393,0.4399,0.4401,0.4405,0.441,0.4413,0.4419,0.4424,0.4425,0.4429,0.4429,0.443,0.4433,0.4437,0.4433,0.4432,0.4432,0.4437,0.4437,0.4438,0.4438,0,0,0.4368,0.4378,0.4378,0.4381,0.4389,0.4391,0.4394,0.4399,0.4401,0.4405,0.4408,0.4413,0.4416,0.4419,0.4424,0.4424,0.4422,0.4427,0.4428,0.4426,0.4422,0.4419,0.4419,0.4424,0.4424,0.4424,0.4421,0,0.4365,0.437,0.4375,0.4378,0.4381,0.4388,0.439,0.4395,0.4399,0.4402,0.4407,0.441,0.4414,0.4416,0.4417,0.4422,0.4421,0.4422,0.4426,0.4426,0.4424,0.4418,0.4416,0.4413,0.4421,0.4421,0.4421,0,0.4362,0.4367,0.437,0.4377,0.4378,0.438,0.4385,0.4388,0.4393,0.4396,0.44,0.4404,0.4407,0.441,0.4414,0.4415,0.4417,0.442,0.442,0.442,0.4423,0.4418,0.4412,0.4411,0.4421,0.4421,0.4421,0,0.4355,0.4362,0.4365,0.4367,0.4375,0.4376,0.438,0.4385,0.4388,0.4392,0.4394,0.4399,0.4401,0.4405,0.4411,0.4412,0.4414,0.4417,0.4416,0.4416,0.4416,0.4416,0.4409,0.4418,0.4418,0.4418,0.4418,0,0.4351,0.4353,0.4362,0.4363,0.4365,0.4372,0.4373,0.4377,0.4382,0.4385,0.439,0.4393,0.44,0.4403,0.4408,0.441,0.4411,0.4414,0.4415,0.4413,0.4412,0.4414,0.4414,0.4418,0.4418,0.4418,0.4418,0,0.4344,0.435,0.4353,0.4361,0.4362,0.4363,0.437,0.4372,0.4376,0.4379,0.438,0.4387,0.4391,0.4397,0.4403,0.4406,0.4407,0.4409,0.4405,0.4406,0.4404,0.4404,0.4398,0.4397,0.4407,0.4406,0.4406,0,0.4341,0.4342,0.435,0.4352,0.4355,0.4358,0.4361,0.4367,0.437,0.4376,0.4377,0.4381,0.4385,0.439,0.4396,0.44,0.4402,0.44,0.4403,0.4401,0.4402,0.4402,0.4402,0.4399,0.4399,0.4399,0.4399,0,0.4335,0.4338,0.4341,0.4346,0.4349,0.4352,0.4357,0.4358,0.4365,0.4368,0.4372,0.4374,0.438,0.4384,0.4389,0.4393,0.4397,0.4398,0.4398,0.4396,0.4393,0.4394,0.4403,0.4398,0.4398,0.4398,0.4398,0.4398,0.4329,0.433,0.4336,0.434,0.4343,0.4347,0.4349,0.4354,0.4357,0.4362,0.4366,0.4369,0.4374,0.4382,0.4385,0.4388,0.439,0.439,0.4389,0.4389,0.4388,0.4393,0.4389,0.4389,0.4389,0.4389,0.4389,0,0.4323,0.4327,0.433,0.4336,0.4338,0.4342,0.4347,0.4349,0.4352,0.4357,0.436,0.4364,0.4368,0.4374,0.4378,0.438,0.4382,0.438,0.438,0.4381,0.4387,0.4386,0.4379,0.4379,0.4379,0.4379,0.4379,0.4379,0.432,0.4322,0.4326,0.433,0.4334,0.4337,0.434,0.4343,0.4347,0.4351,0.4354,0.4358,0.4363,0.4368,0.4371,0.4373,0.4374,0.4372,0.4375,0.438,0.4381,0.4381,0.4381,0.4373,0.4373,0.4369,0.4369,0.4369]},{"header":{"parameterUnit":"m.s-1","parameterCategory":1,"la1":30.2991,"la2":30.254,"lo1":-89.0895,"lo2":-89.0444,"dy":0.0017,"dx":0.0017,"nx":28,"ny":28,"refTime":"2025-03-09T21:00:00:Z","depth":0,"parameterNumber":3,"parameterNumberName":"V-component_of_WINDS"},"data":[0,0,0,0,0,0,0,0,0,0,0,0,0,0,0,0,0,0,0,0,0,0,0,0,0,0,0,0,0,0,0,0,0,0,0,0,0,0,0,0,0,0,0,0,0,0,0,0,0,0,0,0,0,0,0,0,0,0,-0.2851,-0.2852,0,-0.2929,-0.293,-0.2931,-0.2953,-0.2953,-0.2953,-0.2952,-0.3034,-0.3037,-0.3039,0,0,0,0,0,0,0,0,0,0,0,0,0,-0.2723,-0.2725,-0.2851,-0.2852,-0.2853,-0.2929,-0.293,-0.2931,-0.2954,-0.2953,-0.2952,-0.2952,-0.3033,-0.3036,-0.3039,0,0,0,0,0,0,0,0,0,0,0,0,0,-0.2787,-0.2726,-0.2851,-0.2873,-0.2876,-0.2929,-0.293,-0.2931,-0.2954,-0.2953,-0.2952,-0.2952,-0.3032,-0.3036,-0.304,-0.3076,0,0,-0.3052,-0.3053,0,0,0,0,0,0,0,0,-0.2784,-0.2792,-0.2869,-0.2872,-0.2875,-0.2931,-0.2915,-0.298,-0.2954,-0.2924,-0.2952,-0.2951,-0.3,-0.3007,-0.3023,-0.308,-0.3084,-0.3052,-0.3054,-0.3056,-0.3057,0,0,0,0,0,0,0,-0.2779,-0.2789,-0.2882,-0.287,-0.2874,-0.288,-0.2888,-0.2927,-0.2965,-0.2927,-0.2929,-0.2937,-0.3002,-0.3019,-0.3025,-0.3085,-0.3052,-0.3055,-0.3058,-0.3059,-0.3177,-0.3178,0,0,0,0,0,0,-0.2771,-0.2785,-0.2879,-0.2884,-0.2827,-0.2883,-0.2892,-0.2914,-0.2965,-0.2972,-0.2938,-0.2938,-0.3013,-0.302,-0.3028,-0.3075,-0.3056,-0.3059,-0.3062,-0.3176,-0.3177,-0.3178,0,0,0,0,0,0,-0.2768,-0.2779,-0.2876,-0.2835,-0.2848,-0.2886,-0.2909,-0.2915,-0.2933,-0.2973,-0.298,-0.2948,-0.3013,-0.3023,-0.3064,-0.3078,-0.3061,-0.3065,-0.3175,-0.3176,-0.3178,-0.3169,0,0,0,0,0,0,-0.2764,-0.2778,-0.2792,-0.2835,-0.285,-0.2911,-0.291,-0.2917,-0.2939,-0.294,-0.2985,-0.2992,-0.3013,-0.3058,-0.3068,-0.3083,-0.3068,-0.3174,-0.3176,-0.3177,-0.3168,-0.3169,-0.3171,0,0,0,0,0,-0.2759,-0.2786,-0.2792,-0.2803,-0.2868,-0.2911,-0.292,-0.2943,-0.294,-0.2955,-0.2981,-0.299,-0.3075,-0.3062,-0.3074,-0.309,-0.3173,-0.3175,-0.3177,-0.3167,-0.3169,-0.3171,0,0,0,0,0,0,-0.2744,-0.2792,-0.28,-0.2841,-0.2872,-0.2915,-0.2934,-0.2944,-0.2977,-0.2977,-0.3005,-0.3015,-0.3055,-0.3077,-0.3062,-0.3128,-0.3124,-0.3129,-0.3113,-0.3115,-0.3116,-0.3111,-0.3071,0,0,0,0,0,-0.2745,-0.2775,-0.2816,-0.2849,-0.2864,-0.2896,-0.2916,-0.2931,-0.2965,-0.2978,-0.3007,-0.3039,-0.3074,-0.3095,-0.3129,-0.3171,-0.3181,-0.3187,-0.3189,-0.319,-0.3193,-0.3218,-0.3222,-0.3184,-0.3184,-0.3184,0,0,-0.2748,-0.2779,-0.2796,-0.2847,-0.2873,-0.2904,-0.2907,-0.294,-0.2965,-0.2983,-0.3025,-0.3047,-0.3085,-0.3127,-0.3147,-0.3146,-0.3206,-0.3192,-0.3193,-0.3196,-0.322,-0.3224,-0.3227,-0.3185,-0.3185,-0.3185,0,0,-0.2771,-0.2796,-0.2826,-0.2852,-0.2891,-0.2912,-0.2919,-0.2961,-0.2976,-0.3018,-0.3033,-0.3062,-0.3119,-0.3146,-0.3167,-0.3199,-0.321,-0.3209,-0.3217,-0.3241,-0.3244,-0.3247,-0.3259,-0.3263,-0.3213,-0.3213,-0.3213,0,-0.277,-0.2818,-0.2841,-0.2874,-0.2896,-0.2913,-0.2945,-0.2969,-0.3016,-0.3032,-0.303,-0.3103,-0.313,-0.3179,-0.3186,-0.3202,-0.3212,-0.3205,-0.3241,-0.3244,-0.3247,-0.326,-0.3264,-0.3212,-0.3213,-0.3213,-0.3213,0,-0.2815,-0.2848,-0.2868,-0.2913,-0.2938,-0.2969,-0.2998,-0.302,-0.3033,-0.3055,-0.3097,-0.313,-0.3171,-0.3183,-0.3197,-0.3234,-0.3233,-0.3236,-0.3233,-0.325,-0.3262,-0.3267,-0.3212,-0.3212,-0.3212,-0.3212,0,0,-0.2831,-0.2888,-0.2895,-0.2916,-0.296,-0.2986,-0.3019,-0.3058,-0.3077,-0.3109,-0.3138,-0.3186,-0.3189,-0.3213,-0.3229,-0.325,-0.3274,-0.3251,-0.3252,-0.3255,-0.3319,-0.3317,-0.3322,-0.3281,-0.3282,-0.3283,-0.3316,0,-0.2859,-0.2918,-0.294,-0.2989,-0.302,-0.3037,-0.3066,-0.3096,-0.3117,-0.3147,-0.317,-0.3204,-0.3205,-0.322,-0.3241,-0.3267,-0.3288,-0.3265,-0.3309,-0.3311,-0.33,-0.3329,-0.3327,-0.3357,-0.3321,-0.3322,-0.3322,0,-0.2901,-0.2933,-0.2984,-0.3025,-0.3038,-0.3064,-0.3102,-0.313,-0.3165,-0.3178,-0.3205,-0.322,-0.3256,-0.3249,-0.33,-0.3283,-0.3303,-0.3318,-0.332,-0.3326,-0.3318,-0.3336,-0.3367,-0.3372,-0.333,-0.3329,-0.3329,0,-0.2908,-0.2964,-0.3002,-0.302,-0.3067,-0.3085,-0.3105,-0.314,-0.3162,-0.3195,-0.321,-0.3247,-0.3268,-0.3296,-0.3321,-0.3314,-0.3369,-0.3365,-0.3383,-0.3382,-0.3395,-0.3394,-0.343,-0.3405,-0.3405,-0.3405,-0.3405,0,-0.2938,-0.2969,-0.3006,-0.303,-0.3066,-0.309,-0.3125,-0.3147,-0.3177,-0.3206,-0.3223,-0.325,-0.328,-0.3311,-0.3331,-0.337,-0.3379,-0.3392,-0.3397,-0.3391,-0.339,-0.3405,-0.3404,-0.3406,-0.3406,-0.3406,-0.3406,0,-0.2953,-0.2979,-0.3022,-0.3063,-0.3074,-0.3099,-0.3134,-0.3158,-0.318,-0.3216,-0.3226,-0.326,-0.3297,-0.3324,-0.3373,-0.3386,-0.3428,-0.3433,-0.3416,-0.3419,-0.3436,-0.3434,-0.3485,-0.3493,-0.3461,-0.3461,-0.3462,0,-0.2971,-0.2995,-0.3039,-0.3059,-0.308,-0.3112,-0.3135,-0.316,-0.3183,-0.3225,-0.3244,-0.3282,-0.3314,-0.3373,-0.3403,-0.344,-0.3446,-0.3461,-0.3452,-0.3445,-0.3448,-0.3447,-0.345,-0.3463,-0.3463,-0.3463,-0.3463,0,-0.3001,-0.3012,-0.3044,-0.308,-0.3107,-0.3137,-0.3167,-0.3183,-0.3214,-0.3239,-0.3277,-0.3302,-0.3351,-0.3389,-0.3429,-0.3451,-0.3463,-0.3466,-0.3472,-0.3467,-0.3457,-0.3464,-0.3421,-0.3465,-0.3465,-0.3465,-0.3464,-0.3464,-0.3019,-0.3041,-0.3076,-0.3111,-0.3136,-0.3164,-0.3188,-0.3213,-0.3245,-0.3286,-0.3299,-0.3339,-0.3374,-0.3429,-0.3451,-0.3483,-0.3483,-0.3492,-0.3494,-0.3496,-0.3497,-0.3451,-0.349,-0.349,-0.349,-0.349,-0.349,0,-0.305,-0.3073,-0.3105,-0.3146,-0.3174,-0.3181,-0.3215,-0.3238,-0.3273,-0.3304,-0.3335,-0.3379,-0.3416,-0.3448,-0.3487,-0.3506,-0.3512,-0.3516,-0.3515,-0.352,-0.3494,-0.3485,-0.351,-0.351,-0.351,-0.351,-0.351,-0.351,-0.307,-0.3109,-0.3124,-0.3176,-0.3199,-0.3238,-0.3256,-0.3283,-0.3307,-0.3356,-0.3386,-0.3407,-0.3439,-0.348,-0.3514,-0.3523,-0.3537,-0.3539,-0.3549,-0.3524,-0.3522,-0.352,-0.3512,-0.3541,-0.3541,-0.3573,-0.3573,-0.3573]}]]